Flag for Germany Weather past 2 weeks in Berlin, Berlin, Germany

Now
72 °F

Mild.


Feels Like: 77 °F
Forecast: 55 / 74 °F
Wind: 6 mph from Southeast

Location: Berlin-Tempelhof

Current Time: Sep 18, 2014 at 2:00:29 PM

Latest Report: Sep 18, 2014 at 1:00 PM


Visibility: N/A

Pressure: 29.97 "Hg

Humidity: 48%

Dew point: 52 °F

Location of BerlinLocation

Historic Weather in Berlin — Graph

°F

Berlin temperature yesterday

Maximum temperature yesterday: 75 °F (at 4:00 PM)
Minimum temperature yesterday: 56 °F (at 7:00 AM)
Average temperature yesterday: 65 °F

Past Weeks' High & Low Weather Summary

 TemperatureHumidityPressure
High81 °F (Sep 7, 4:00 PM)96% (Sep 11, 6:00 AM)30.29 "Hg (Sep 11, 6:00 AM)
Low52 °F (Sep 11, 12:00 AM)39% (Sep 8, 4:00 PM)29.87 "Hg (Sep 6, 6:00 PM)
Average65 °F73%30.06 "Hg
* Reported Sep 3 1:00 PM — Sep 18 1:00 PM, Berlin, Weather by CustomWeather, © 2014

Note: Actual official high and low records may vary slightly from our data, if they occured in-between our weather recording intervals... More about our weather records

Advertising

Berlin weather history for previous 24 hours

 ConditionsComfort  
Time TempWeatherWind HumidityBarometerVisibility
1:00 PM
Sep 18
72 °FMild.6 mph48%29.97 "HgN/A
12:00 PM71 °FMild.5 mph56%29.98 "HgN/A
11:00 AM67 °FMild.5 mph64%30.00 "HgN/A
10:00 AM64 °FMild.5 mph70%30.01 "HgN/A
9:00 AM60 °FCool.3 mph77%30.00 "HgN/A
8:00 AM57 °FCool.3 mph83%30.01 "HgN/A
7:00 AM56 °FCool.5 mph84%30.00 "HgN/A
6:00 AM56 °FCool.5 mph82%30.00 "HgN/A
5:00 AM56 °FCool.3 mph81%30.01 "HgN/A
4:00 AM57 °FCool.3 mph79%30.01 "HgN/A
3:00 AM58 °FCool.2 mph76%30.01 "HgN/A
2:00 AM60 °FCool.3 mph73%30.02 "HgN/A
1:00 AM61 °FCool.3 mph71%30.01 "HgN/A
12:00 AM63 °FMild.3 mph69%30.02 "HgN/A
11:00 PM
Sep 17
65 °FMild.5 mph67%30.02 "HgN/A
10:00 PM67 °FMild.5 mph65%30.02 "HgN/A
9:00 PM67 °FMild.3 mph69%30.02 "HgN/A
8:00 PM68 °FMild.5 mph66%30.01 "HgN/A
7:00 PM71 °FMild.5 mph58%30.00 "HgN/A
6:00 PM74 °FMild.6 mph51%30.00 "HgN/A
5:00 PM75 °FMild.6 mph48%30.01 "HgN/A
4:00 PM75 °FMild.7 mph50%30.01 "HgN/A
3:00 PM74 °FMild.5 mph56%30.03 "HgN/A
2:00 PM72 °FMild.5 mph57%30.04 "HgN/A
Weather by CustomWeather, © 2014

See weather overviewHow to use our weather pages